#timestamp,LO_Frequency,Hit,StdDev 
1513821615.7,286047002.7,N
1513821635.5,286047001.5,N
1513821655.4,286047000.4,N
1513821675.2,286046998.9,N
1513821695.0,286046998.5,N
1513821695.9,286046998.5,N
1513821715.8,286047002.8,N
1513821735.6,286047002.0,N
1513821755.5,286046999.7,N
1513821775.3,286047001.3,N
1513821795.1,286047001.8,N
1513821815.9,286047001.5,N
1513821835.7,286047001.9,N
1513821855.5,286047003.4,N
1513821875.4,286047006.0,Y
1513821895.2,286047006.0,P
1513821915.1,286047005.9,N
1513821916.0,286047005.9,N
1513821935.8,286047001.7,N
1513821955.6,286047004.3,N
1513821975.5,286047004.1,N
1513821995.3,286047001.3,N
1513822015.2,286047001.4,N
1513822035.9,286047002.2,N
1513822055.7,286047000.3,N
1513822075.6,286047000.5,N
1513822095.4,286046998.8,N
1513822115.3,286046998.4,N
1513822135.1,286046998.5,N
1513822136.0,286046998.5,N
1513822155.8,286047000.0,N
1513822175.7,286047001.3,N
1513822195.5,286047003.7,N
1513822215.3,286047007.5,Y
1513822235.2,286047004.1,P
1513822255.0,286047001.7,N
1513822255.9,286047001.7,N
1513822275.8,286047004.0,Y
1513822295.6,286047000.1,P
1513822315.4,286047002.7,N
1513822335.3,286047002.8,N
1513822355.1,286046998.8,N
1513822375.9,286047001.1,N
1513822395.7,286046998.1,N
1513822415.5,286047002.4,N
1513822435.4,286047004.4,N
1513822455.2,286047003.7,N
1513822475.1,286047002.2,N
1513822476.0,286047002.2,N
1513822495.8,286047001.9,N
1513822515.6,286047002.7,N
1513822535.5,286046998.6,N
1513822555.3,286046996.6,N
1513822575.2,286046997.0,N
1513822595.9,286046997.0,N
1513822615.7,286046995.3,N
1513822635.6,286046995.1,N
1513822655.4,286046994.9,N
1513822675.2,286046996.2,N
1513822695.1,286046995.7,N
1513822696.0,286046995.7,N
1513822715.8,286046997.5,N
1513822735.7,286046997.1,N
1513822755.5,286046997.2,N
1513822775.3,286046995.4,N
1513822795.2,286046993.5,N
1513822815.0,286046993.7,N
1513822815.9,286046993.7,N
1513822835.7,286046996.2,N
1513822855.6,286046995.3,N
1513822875.4,286046997.7,N
1513822895.3,286046996.7,N
1513822915.1,286046997.5,N
1513822935.8,286046997.2,N
1513822955.7,286046999.0,N
1513822975.5,286046999.5,N
1513822995.4,286046995.1,N
1513823015.2,286046995.3,N
1513823035.0,286046995.7,N
1513823035.9,286046995.7,N
1513823055.8,286046996.6,N
1513823075.6,286046995.2,Y
1513823095.5,286047001.1,P
1513823115.3,286047000.6,N
1513823135.1,286046999.0,N
1513823155.9,286046999.2,N
1513823175.7,286046996.6,N
1513823195.5,286046999.1,N
1513823215.4,286047001.1,N
1513823235.2,286047002.8,N
1513823255.1,286047001.8,N
1513823256.0,286047001.8,N
1513823275.8,286047000.0,N
1513823295.6,286046998.3,N
1513823315.5,286046998.1,N
1513823335.3,286047001.2,N
1513823355.1,286046999.0,N
1513823375.9,286046998.9,N
1513823425.8,286047002.6,E
1513823435.7,286046999.9,N
1513823455.5,286046999.1,P
1513823475.4,286046999.6,N
1513823495.2,286046996.6,Y
1513823515.0,286047002.0,P
1513823515.9,286047002.0,N
1513823535.8,286047001.7,N
1513823555.6,286047004.3,Y
1513823575.5,286047001.9,P
1513823595.3,286047001.8,P
1513823615.1,286047002.0,P
1513823635.9,286047002.8,Y
1513823655.7,286046998.7,P
1513823675.5,286046999.4,N
1513823695.4,286046998.3,N
1513823715.2,286046999.0,N
1513823735.1,286046999.4,N
1513823736.0,286046999.4,N
1513823755.8,286046998.2,N
1513823775.6,286046999.0,N
1513823795.5,286046999.3,N
1513823815.3,286046999.2,N
1513823835.1,286047000.5,N
1513823855.9,286046999.1,N
1513823875.7,286047000.7,N
1513823895.6,286047000.0,N
1513823915.4,286047000.4,N
1513823935.2,286047000.4,N
1513823955.1,286047000.2,N
1513823956.0,286047000.2,N
1513823975.8,286046999.9,N
1513823995.7,286047000.2,N
1513824015.5,286046999.9,N
1513824035.3,286047002.7,Y
1513824055.2,286047003.0,P
1513824075.0,286047005.1,P
1513824075.9,286047005.1,N
1513824095.8,286047007.1,Y
1513824115.6,286047001.5,P
1513824135.4,286047000.6,N
1513824155.3,286046998.7,N
1513824175.1,286046998.7,N
1513824195.8,286047001.1,N
1513824215.7,286047001.0,N
1513824235.5,286047002.4,N
1513824255.4,286046998.8,N
1513824275.2,286046998.9,N
1513824295.0,286046998.7,N
1513824295.9,286046998.7,N
1513824315.8,286046996.7,N
1513824335.6,286046997.4,N
1513824355.4,286046996.8,N
1513824375.3,286046995.1,N
1513824395.1,286046993.5,Y
1513824415.9,286046995.7,P
1513824435.7,286046995.7,N
1513824455.5,286046995.9,N
1513824475.4,286046993.8,Y
1513824495.2,286046998.5,P
1513824515.1,286047001.0,N
1513824516.0,286047001.0,N
1513824535.8,286047002.5,N
1513824555.6,286047004.4,N
1513824575.5,286047002.3,N
1513824595.3,286047001.9,N
1513824615.2,286047003.7,N
1513824635.9,286047005.6,N
1513824655.7,286047006.9,N
1513824675.6,286047006.7,N
1513824695.4,286047006.3,N
1513824715.2,286047007.2,N
1513824735.1,286047005.4,N
1513824736.0,286047005.4,N
1513824755.8,286047005.9,N
1513824775.7,286047001.4,N
1513824795.5,286047003.2,N
1513824815.3,286047003.3,N
1513824835.2,286047002.2,N
1513824855.0,286047000.2,N
1513824855.9,286047000.2,N
1513824875.8,286047004.3,N
1513824895.6,286047002.1,N
1513824915.4,286047002.5,N
1513824935.3,286047002.5,N
1513824955.1,286047000.3,N
1513824975.8,286046999.7,N
1513824995.7,286047001.7,N
1513825015.5,286047005.8,N
1513825035.4,286047004.4,N
1513825055.2,286047001.4,N
1513825075.0,286046999.9,N
1513825075.9,286046999.9,N
1513825095.8,286047001.4,N
1513825115.6,286047002.6,N
1513825135.5,286047000.5,N
1513825155.3,286047000.5,N
1513825175.1,286046999.3,N
1513825195.9,286047000.8,N
